Regional Weather Roundup
Issued by NWS

Home | Current Version | Previous Version | Graphics & Text | Print | Product List | Glossary On
Versions: 1 2 3 4 5 6 7 8 9 10 11 12 13 14 15 16 17 18 19 20 21 22 23 24 25 26 27 28 29 30 31 32 33 34 35 36 37 38 39 40 41 42 43 44 45 46 47 48 49
388
ASUS45 KTFX 040410
RWRMT
MONTANA REGIONAL WEATHER ROUNDUP
NATIONAL WEATHER SERVICE GREAT FALLS MT
1000 PM MDT TUE MAY 03 2016

NOTE: "FAIR" INDICATES FEW OR NO CLOUDS BELOW 12000 FEET WITH NO
SIGNIFICANT WEATHER AND/OR OBSTRUCTIONS TO VISIBILITY.

MTZ001>007-043-040500-
WEST OF THE DIVIDE

CITY           SKY/WX    TMP DP  RH WIND       PRES   REMARKS
KALISPELL      CLEAR     55  45  68 CALM      29.98R
MISSOULA       CLEAR     65  38  36 NE3       30.01R
BUTTE          CLEAR     53  31  42 SE3       30.13R
MULLAN PASS    CLEAR     57  29  34 NW7       30.14S
$$

MTZ008-052>055-040500-
SOUTHWEST MONTANA

CITY           SKY/WX    TMP DP  RH WIND       PRES   REMARKS
BOZEMAN        CLEAR     61  34  36 S14       30.09R
DILLON         CLEAR     64  21  19 S15       30.11R
ENNIS          CLEAR     54  27  35 S13       30.21R
$$

MTZ009-010-012-014-046-048-049-054-040500-
EAST SLOPES AND CENTRAL MONTANA

CITY           SKY/WX    TMP DP  RH WIND       PRES   REMARKS
CUT BANK       CLEAR     58  35  42 W9        30.02R
GREAT FALLS    CLEAR     63  39  41 SE9       30.02S
MALMSTROM AFB  CLEAR     56  44  63 SE12      30.02S
HELENA         CLEAR     64  34  32 W6        30.05R
$$

MTZ011-013-016-021-045-047-050-051-040500-
NORTH CENTRAL MONTANA

CITY           SKY/WX    TMP DP  RH WIND       PRES   REMARKS
HAVRE          CLEAR     56  49  77 S9        29.99S
LEWISTOWN      CLEAR     58  40  51 E9        30.10R
N BAR RANCH      N/A     54  37  54 CALM      30.15S
$$

MTZ017>020-022>027-061-062-040500-
NORTHEAST MONTANA

CITY           SKY/WX    TMP DP  RH WIND       PRES   REMARKS
GLASGOW        CLEAR     64  38  38 S7        30.04R
JORDAN           N/A     58  44  60 CALM      30.06R
SIDNEY         CLEAR     59  39  47 CALM      30.05R
WOLF POINT     CLEAR     58  44  60 W3        30.03R
$$

MTZ028>42-056>058-040500-
SOUTHCENTRAL AND SOUTHEAST MONTANA

CITY           SKY/WX    TMP DP  RH WIND       PRES   REMARKS
BAKER          CLEAR     56  39  53 CALM      30.10R
BILLINGS       CLEAR     65  38  36 SE7       30.09S
LIVINGSTON     CLEAR     56  34  43 NE5       30.10R
MILES CITY     CLEAR     68  37  32 SE5       30.07R
$$

REGIONAL REPORTS...DAKOTAS

CITY           SKY/WX    TMP DP  RH WIND       PRES   REMARKS
WILLISTON      CLEAR     63  38  39 NE3       30.05R
MINOT          CLEAR     55  26  32 CALM      30.04R
DICKINSON      CLEAR     57  37  47 NE6       30.06R
BEACH            N/A     50  39  66 S5        30.12R
CROSBY           N/A     55  36  47 SE8       30.06S
TIOGA            N/A     52  36  54 CALM      30.11R
WATFORD CITY     N/A     54  39  58 E3        30.06S
BISMARCK       CLEAR     52  30  43 E9        30.04R
GRAND FORKS    CLEAR     47  31  53 N10       30.00R
FARGO          CLEAR     54  26  34 N16       29.96R
BUFFALO SD       N/A     64  36  35 N9        30.04R
RAPID CITY     CLEAR     53  41  63 NW12      30.10R
$$

REGIONAL REPORTS...WYOMING/IDAHO/WASHINGTON

CITY           SKY/WX    TMP DP  RH WIND       PRES   REMARKS
GILLETTE       CLEAR     45  40  82 S7        30.17R
SHERIDAN       CLEAR     52  41  66 S3        30.14R
BUFFALO WY     CLEAR     54  36  50 W10       30.20R
CODY           CLEAR     55  34  44 S5        30.16R
YELLOWSTONE LA   N/A     35  26  69 CALM      30.33R
IDAHO FALLS    CLEAR     56  34  43 CALM      30.17R
SALMON         CLEAR     55  36  47 S3        30.04R
BOISE          CLEAR     69  32  25 E8        30.01R
SPOKANE        MOCLDY    69  38  32 SW3       29.96R
$$

REGIONAL REPORTS...ALBERTA

CITY           SKY/WX    TMP DP  RH WIND       PRES   REMARKS
EDMONTON       PTCLDY    61  36  39 SE2       29.81S
CALGARY        PTCLDY    72  19  14 W5        29.92R
LETHBRIDGE     CLEAR     59  30  33 SW20      29.95R
MEDICINE HAT   CLEAR     66  37  34 S12G17    29.92S
WATERTON GATE    N/A     54  34  47 SW6         N/A
MILK RIVER       N/A     54  39  58 SW2         N/A
ONEFOUR          N/A     55  43  62 E10         N/A
$$

REGIONAL REPORTS...SASKATCHEWAN

CITY           SKY/WX    TMP DP  RH WIND       PRES   REMARKS
SWIFT CURRENT  CLEAR     63  39  42 S13       29.99R
REGINA         CLEAR     59  37  44 S12       30.02R
SASKATOON      PTCLDY    66  41  39 SE9       29.94R
CYPRESS HILLS    N/A     59  37  44 S6          N/A
VAL MARIE        N/A     54  41  62 SW2         N/A
ROCKGLEN         N/A     61  34  36 S6          N/A
ASSINIBOIA       N/A     68  37  32 S6          N/A
$$




USA.gov is the U.S. government's official web portal to all federal, state and local government web resources and services.